Location: Unspecified
(0.0000°N, 0.0000°E)
Time: 07:55:36
(UTC+00:00)

ISS - Pass Details

Date: 18 February 2018
Orbit: 402 x 406 km, 51.6° (Epoch: 18 June)

Event Time Altitude Azimuth Distance (km) Brightness Sun altitude
Rises 18:55:18 0° 313° (NW) 2,303 0.5 -10.1°
Reaches altitude 10° 18:57:26 10° 305° (NW) 1,449 -0.4 -10.7°
Maximum altitude 19:00:29 38° 235° (SW) 630 -2.3 -11.4°
Drops below altitude 10° 19:03:34 10° 164° (SSE) 1,461 -1.0 -12.2°
Sets 19:05:45 0° 156° (SSE) 2,326 -0.1 -12.7°
